| time (UTC) | temp F | wind direction | speed MPH | gust MPH | rain 1hr in | rain 24hr in | rain mn in | humidity % | barometer mb |
| 20260504020804 | 74 | 159 | 6.0 | 8.0 | 0.00 | 0.00 | 0.00 | 44 | 1013.8 |
| 20260504020304 | 74 | 186 | 5.0 | 9.0 | 0.00 | 0.00 | 0.00 | 43 | 1013.5 |
| 20260504014309 | 74 | 180 | 5.0 | 10.0 | 0.00 | 0.00 | 0.00 | 41 | 1013.5 |
| 20260504013808 | 75 | 177 | 7.0 | 12.0 | 0.00 | 0.00 | 0.00 | 40 | 1013.5 |
| 20260504013308 | 75 | 158 | 6.0 | 10.0 | 0.00 | 0.00 | 0.00 | 39 | 1013.5 |
| 20260504012309 | 75 | 190 | 7.0 | 13.0 | 0.00 | 0.00 | 0.00 | 38 | 1013.5 |
| 20260504011309 | 76 | 169 | 7.0 | 15.0 | 0.00 | 0.00 | 0.00 | 37 | 1013.2 |
| 20260504010808 | 76 | 187 | 6.0 | 12.0 | 0.00 | 0.00 | 0.00 | 38 | 1013.2 |
| 20260504010308 | 76 | 195 | 6.0 | 13.0 | 0.00 | 0.00 | 0.00 | 37 | 1013.2 |
| 20260504003308 | 78 | 175 | 10.0 | 16.0 | 0.00 | 0.00 | 0.00 | 35 | 1013.5 |
| 20260504001807 | 79 | 198 | 7.0 | 16.0 | 0.00 | 0.00 | 0.00 | 35 | 1013.5 |
| 20260504001308 | 79 | 170 | 3.0 | 13.0 | 0.00 | 0.00 | 0.00 | 35 | 1013.5 |
| 20260504000308 | 79 | 187 | 7.0 | 15.0 | 0.00 | 0.00 | 0.00 | 34 | 1013.5 |
| 20260503235808 | 79 | 172 | 9.0 | 16.0 | 0.00 | 0.00 | 0.00 | 33 | 1013.5 |
| 20260503235308 | 80 | 174 | 9.0 | 16.0 | 0.00 | 0.00 | 0.00 | 33 | 1013.5 |
| 20260503234808 | 80 | 196 | 9.0 | 18.0 | 0.00 | 0.00 | 0.00 | 33 | 1013.6 |
| 20260503233308 | 80 | 198 | 8.0 | 21.0 | 0.00 | 0.00 | 0.00 | 33 | 1013.7 |
| 20260503232308 | 80 | 175 | 12.0 | 20.0 | 0.00 | 0.00 | 0.00 | 32 | 1013.7 |
| 20260503230808 | 81 | 198 | 9.0 | 18.0 | 0.00 | 0.00 | 0.00 | 32 | 1013.8 |
| 20260503225808 | 82 | 193 | 8.0 | 13.0 | 0.00 | 0.00 | 0.00 | 31 | 1013.8 |
| 20260503224808 | 82 | 158 | 10.0 | 17.0 | 0.00 | 0.00 | 0.00 | 31 | 1014.1 |
| 20260503223308 | 83 | 230 | 6.0 | 14.0 | 0.00 | 0.00 | 0.00 | 32 | 1014.1 |
| 20260503222808 | 82 | 192 | 5.0 | 21.0 | 0.00 | 0.00 | 0.00 | 33 | 1014.1 |
| 20260503222307 | 82 | 205 | 6.0 | 20.0 | 0.00 | 0.00 | 0.00 | 33 | 1014.1 |
| 20260503221807 | 82 | 224 | 7.0 | 15.0 | 0.00 | 0.00 | 0.00 | 31 | 1014.3 |
| 20260503221307 | 82 | 212 | 9.0 | 15.0 | 0.00 | 0.00 | 0.00 | 32 | 1014.3 |
| 20260503220308 | 83 | 180 | 8.0 | 17.0 | 0.00 | 0.00 | 0.00 | 31 | 1014.3 |
| 20260503215807 | 83 | 182 | 7.0 | 23.0 | 0.00 | 0.00 | 0.00 | 32 | 1014.3 |
| 20260503213808 | 83 | 181 | 6.0 | 15.0 | 0.00 | 0.00 | 0.00 | 32 | 1014.6 |
| 20260503213307 | 83 | 225 | 6.0 | 12.0 | 0.00 | 0.00 | 0.00 | 32 | 1014.6 |
| 20260503211308 | 83 | 182 | 9.0 | 14.0 | 0.00 | 0.00 | 0.00 | 33 | 1014.7 |
| 20260503210308 | 84 | 183 | 6.0 | 17.0 | 0.00 | 0.00 | 0.00 | 33 | 1015.1 |
| 20260503205307 | 83 | 197 | 7.0 | 16.0 | 0.00 | 0.00 | 0.00 | 33 | 1015.7 |
| 20260503204807 | 83 | 193 | 11.0 | 16.0 | 0.00 | 0.00 | 0.00 | 31 | 1015.7 |
| 20260503203807 | 83 | 171 | 5.0 | 10.0 | 0.00 | 0.00 | 0.00 | 32 | 1015.7 |
| 20260503201807 | 84 | 183 | 7.0 | 13.0 | 0.00 | 0.00 | 0.00 | 31 | 1016.0 |
| 20260503201307 | 84 | 213 | 7.0 | 12.0 | 0.00 | 0.00 | 0.00 | 32 | 1016.0 |
| 20260503200807 | 83 | 195 | 3.0 | 12.0 | 0.00 | 0.00 | 0.00 | 33 | 1016.0 |
| 20260503195307 | 83 | 182 | 6.0 | 15.0 | 0.00 | 0.00 | 0.00 | 32 | 1016.4 |
| 20260503194807 | 83 | 165 | 5.0 | 15.0 | 0.00 | 0.00 | 0.00 | 33 | 1016.4 |
| 20260503192307 | 81 | 196 | 4.0 | 13.0 | 0.00 | 0.00 | 0.00 | 35 | 1016.7 |
| 20260503191808 | 82 | 225 | 8.0 | 15.0 | 0.00 | 0.00 | 0.00 | 34 | 1016.8 |
| 20260503190307 | 83 | 230 | 6.0 | 14.0 | 0.00 | 0.00 | 0.00 | 34 | 1016.8 |
| 20260503185307 | 82 | 206 | 8.0 | 16.0 | 0.00 | 0.00 | 0.00 | 35 | 1017.5 |
| 20260503184808 | 82 | 238 | 6.0 | 16.0 | 0.00 | 0.00 | 0.00 | 36 | 1017.5 |
| 20260503183807 | 82 | 216 | 7.0 | 20.0 | 0.00 | 0.00 | 0.00 | 37 | 1017.5 |
| 20260503183307 | 81 | 204 | 7.0 | 16.0 | 0.00 | 0.00 | 0.00 | 36 | 1017.5 |
| 20260503181307 | 81 | 254 | 6.0 | 12.0 | 0.00 | 0.00 | 0.00 | 38 | 1017.8 |
| 20260503180808 | 82 | 212 | 7.0 | 15.0 | 0.00 | 0.00 | 0.00 | 38 | 1018.0 |
| 20260503180307 | 80 | 199 | 7.0 | 12.0 | 0.00 | 0.00 | 0.00 | 39 | 1018.0 |
| 20260503175807 | 80 | 209 | 7.0 | 14.0 | 0.00 | 0.00 | 0.00 | 40 | 1018.4 |
| 20260503173307 | 80 | 285 | 7.0 | 14.0 | 0.00 | 0.00 | 0.00 | 41 | 1018.8 |
| 20260503172307 | 79 | 225 | 5.0 | 13.0 | 0.00 | 0.00 | 0.00 | 42 | 1018.8 |
| 20260503171307 | 79 | 200 | 6.0 | 15.0 | 0.00 | 0.00 | 0.00 | 42 | 1019.1 |
| 20260503131306 | 62 | 229 | 3.0 | 7.0 | 0.00 | 0.00 | 0.00 | 67 | 1018.9 |
| 20260503130806 | 62 | 196 | 3.0 | 7.0 | 0.00 | 0.00 | 0.00 | 67 | 1018.9 |
| 20260503110306 | 59 | 223 | 3.0 | 7.0 | 0.00 | 0.00 | 0.00 | 69 | 1018.1 |
| 20260503081305 | 62 | 215 | 4.0 | 8.0 | 0.00 | 0.00 | 0.00 | 62 | 1017.7 |
| 20260503080805 | 62 | 212 | 4.0 | 7.0 | 0.00 | 0.00 | 0.00 | 62 | 1017.8 |
| 20260503080306 | 62 | 207 | 4.0 | 8.0 | 0.00 | 0.00 | 0.00 | 61 | 1017.8 |
| 20260503071805 | 63 | 200 | 3.0 | 7.0 | 0.00 | 0.00 | 0.00 | 59 | 1018.1 |
| 20260503070805 | 63 | 208 | 4.0 | 7.0 | 0.00 | 0.00 | 0.00 | 58 | 1018.2 |
| 20260503070305 | 63 | 205 | 4.0 | 7.0 | 0.00 | 0.00 | 0.00 | 58 | 1018.2 |
| 20260503054805 | 62 | 180 | 3.0 | 6.0 | 0.00 | 0.00 | 0.00 | 60 | 1017.9 |
| 20260503053805 | 62 | 176 | 4.0 | 6.0 | 0.00 | 0.00 | 0.00 | 59 | 1017.9 |
| 20260503053304 | 63 | 176 | 4.0 | 6.0 | 0.00 | 0.00 | 0.00 | 59 | 1017.8 |
| 20260503052306 | 63 | 170 | 4.0 | 6.0 | 0.00 | 0.00 | 0.00 | 58 | 1017.8 |
| 20260503051804 | 63 | 165 | 3.0 | 5.0 | 0.00 | 0.00 | 0.00 | 58 | 1017.8 |
| 20260503050929 | 64 | 164 | 3.0 | 5.0 | 0.00 | 0.00 | 0.00 | 56 | 1017.7 |
| 20260503045805 | 64 | 161 | 4.0 | 6.0 | 0.00 | 0.00 | 0.00 | 55 | 1017.7 |
| 20260503044805 | 64 | 169 | 5.0 | 6.0 | 0.00 | 0.00 | 0.00 | 55 | 1017.8 |
| 20260503044304 | 65 | 167 | 5.0 | 8.0 | 0.00 | 0.00 | 0.00 | 54 | 1017.8 |
| 20260503040304 | 66 | 173 | 5.0 | 8.0 | 0.00 | 0.00 | 0.00 | 54 | 1017.8 |
| 20260503033804 | 66 | 171 | 3.0 | 5.0 | 0.00 | 0.00 | 0.00 | 55 | 1017.8 |
| 20260503030304 | 67 | 209 | 2.0 | 3.0 | 0.00 | 0.00 | 0.00 | 53 | 1017.5 |
| 20260503025805 | 67 | 209 | 2.0 | 3.0 | 0.00 | 0.00 | 0.00 | 53 | 1017.5 |
| 20260503023804 | 68 | 220 | 2.0 | 3.0 | 0.00 | 0.00 | 0.00 | 52 | 1017.3 |
| 20260503023304 | 68 | 220 | 2.0 | 3.0 | 0.00 | 0.00 | 0.00 | 51 | 1017.2 |
| 20260503022305 | 68 | 220 | 2.0 | 3.0 | 0.00 | 0.00 | 0.00 | 50 | 1017.1 |
| 20260503021804 | 68 | 220 | 2.0 | 3.0 | 0.00 | 0.00 | 0.00 | 50 | 1017.1 |
| 20260503021304 | 69 | 221 | 1.0 | 3.0 | 0.00 | 0.00 | 0.00 | 49 | 1017.1 |